| time (UTC) | temp F | wind direction | speed MPH | gust MPH | rain 1hr in | rain 24hr in | rain mn in | humidity % | barometer mb |
| 20260509022502 | 73 | 149 | 0.0 | 1.0 | 0.00 | 0.09 | 0.09 | 79 | 1009.3 |
| 20260509022003 | 73 | 146 | 0.0 | 4.0 | 0.00 | 0.09 | 0.09 | 79 | 1008.9 |
| 20260509021506 | 73 | 146 | 0.0 | 4.0 | 0.00 | 0.09 | 0.09 | 78 | 1008.8 |
| 20260509021003 | 73 | 134 | 0.0 | 3.0 | 0.00 | 0.09 | 0.09 | 78 | 1008.5 |
| 20260509020008 | 73 | 157 | 0.0 | 3.0 | 0.00 | 0.09 | 0.09 | 78 | 1008.3 |
| 20260509015503 | 73 | 170 | 0.0 | 3.0 | 0.00 | 0.09 | 0.09 | 78 | 1008.4 |
| 20260509014506 | 73 | 153 | 0.0 | 5.0 | 0.00 | 0.09 | 0.09 | 77 | 1008.5 |
| 20260509014002 | 73 | 218 | 0.0 | 5.0 | 0.00 | 0.09 | 0.09 | 77 | 1008.3 |
| 20260509013006 | 73 | 171 | 0.0 | 1.0 | 0.00 | 0.09 | 0.09 | 76 | 1008.4 |
| 20260509012502 | 74 | 171 | 0.0 | 3.0 | 0.00 | 0.09 | 0.09 | 75 | 1008.6 |
| 20260509012002 | 74 | 170 | 0.0 | 5.0 | 0.00 | 0.09 | 0.09 | 75 | 1008.7 |
| 20260509011506 | 74 | 180 | 0.0 | 5.0 | 0.00 | 0.09 | 0.09 | 74 | 1008.8 |
| 20260509010502 | 74 | 246 | 2.0 | 8.0 | 0.00 | 0.09 | 0.09 | 74 | 1008.8 |
| 20260509010008 | 74 | 200 | 1.0 | 6.0 | 0.00 | 0.09 | 0.09 | 73 | 1008.8 |
| 20260509005503 | 75 | 211 | 2.0 | 6.0 | 0.00 | 0.09 | 0.09 | 73 | 1008.7 |
| 20260509005002 | 75 | 186 | 0.0 | 3.0 | 0.00 | 0.09 | 0.09 | 73 | 1008.7 |
| 20260509003006 | 75 | 183 | 1.0 | 8.0 | 0.00 | 0.09 | 0.09 | 71 | 1008.2 |
| 20260509002503 | 76 | 188 | 2.0 | 8.0 | 0.00 | 0.09 | 0.09 | 70 | 1008.2 |
| 20260509002002 | 76 | 153 | 0.0 | 8.0 | 0.00 | 0.09 | 0.09 | 71 | 1008.1 |
| 20260509001003 | 76 | 218 | 3.0 | 9.0 | 0.00 | 0.09 | 0.09 | 70 | 1008.0 |
| 20260509000502 | 76 | 173 | 3.0 | 8.0 | 0.00 | 0.09 | 0.09 | 70 | 1008.1 |
| 20260509000008 | 76 | 226 | 3.0 | 8.0 | 0.00 | 0.09 | 0.09 | 69 | 1008.1 |
| 20260508235501 | 76 | 235 | 1.0 | 8.0 | 0.00 | 0.09 | 0.09 | 69 | 1008.1 |
| 20260508234505 | 76 | 167 | 1.0 | 11.0 | 0.00 | 0.09 | 0.09 | 69 | 1008.3 |
| 20260508234001 | 76 | 91 | 3.0 | 11.0 | 0.00 | 0.09 | 0.09 | 68 | 1008.3 |
| 20260508233005 | 77 | 149 | 1.0 | 9.0 | 0.00 | 0.09 | 0.09 | 68 | 1008.5 |
| 20260508232503 | 77 | 202 | 2.0 | 9.0 | 0.00 | 0.09 | 0.09 | 66 | 1008.5 |
| 20260508232002 | 77 | 211 | 2.0 | 8.0 | 0.00 | 0.09 | 0.09 | 67 | 1008.5 |
| 20260508231505 | 77 | 113 | 2.0 | 10.0 | 0.00 | 0.09 | 0.09 | 67 | 1008.5 |
| 20260508231001 | 77 | 221 | 3.0 | 10.0 | 0.00 | 0.09 | 0.09 | 66 | 1008.4 |
| 20260508230501 | 78 | 133 | 2.0 | 10.0 | 0.00 | 0.09 | 0.09 | 65 | 1008.5 |
| 20260508230007 | 78 | 141 | 2.0 | 11.0 | 0.00 | 0.09 | 0.09 | 66 | 1008.4 |
| 20260508225503 | 78 | 170 | 1.0 | 8.0 | 0.00 | 0.09 | 0.09 | 65 | 1008.4 |
| 20260508225003 | 78 | 86 | 2.0 | 8.0 | 0.00 | 0.09 | 0.09 | 66 | 1008.4 |
| 20260508224506 | 78 | 152 | 1.0 | 8.0 | 0.00 | 0.09 | 0.09 | 65 | 1008.5 |
| 20260508224002 | 77 | 198 | 1.0 | 9.0 | 0.00 | 0.09 | 0.09 | 66 | 1008.5 |
| 20260508223501 | 77 | 140 | 2.0 | 9.0 | 0.00 | 0.09 | 0.09 | 65 | 1008.6 |
| 20260508223004 | 77 | 198 | 2.0 | 8.0 | 0.00 | 0.09 | 0.09 | 66 | 1008.7 |
| 20260508222502 | 77 | 226 | 3.0 | 9.0 | 0.00 | 0.09 | 0.09 | 66 | 1008.7 |
| 20260508222001 | 77 | 215 | 2.0 | 8.0 | 0.00 | 0.09 | 0.09 | 66 | 1008.7 |
| 20260508221505 | 78 | 211 | 2.0 | 9.0 | 0.00 | 0.09 | 0.09 | 66 | 1008.7 |
| 20260508221001 | 78 | 202 | 0.0 | 9.0 | 0.00 | 0.09 | 0.09 | 66 | 1008.8 |
| 20260508220501 | 78 | 175 | 3.0 | 9.0 | 0.00 | 0.09 | 0.09 | 64 | 1008.8 |
| 20260508220007 | 78 | 160 | 2.0 | 8.0 | 0.00 | 0.09 | 0.09 | 65 | 1008.8 |
| 20260508215501 | 78 | 207 | 1.0 | 7.0 | 0.00 | 0.09 | 0.09 | 63 | 1008.8 |
| 20260508215003 | 79 | 214 | 2.0 | 8.0 | 0.00 | 0.09 | 0.09 | 62 | 1008.8 |
| 20260508214505 | 79 | 114 | 1.0 | 9.0 | 0.00 | 0.09 | 0.09 | 62 | 1008.8 |
| 20260508214001 | 79 | 172 | 3.0 | 9.0 | 0.00 | 0.09 | 0.09 | 62 | 1008.8 |
| 20260508213501 | 79 | 141 | 1.0 | 8.0 | 0.00 | 0.09 | 0.09 | 63 | 1008.7 |
| 20260508212502 | 78 | 105 | 1.0 | 9.0 | 0.00 | 0.09 | 0.09 | 63 | 1008.9 |
| 20260508212002 | 78 | 193 | 2.0 | 8.0 | 0.00 | 0.09 | 0.09 | 62 | 1009.0 |
| 20260508211505 | 79 | 132 | 1.0 | 8.0 | 0.00 | 0.09 | 0.09 | 62 | 1008.9 |
| 20260508211002 | 78 | 124 | 1.0 | 6.0 | 0.00 | 0.09 | 0.09 | 63 | 1008.8 |
| 20260508205502 | 78 | 136 | 1.0 | 8.0 | 0.00 | 0.09 | 0.09 | 63 | 1009.1 |
| 20260508204504 | 77 | 180 | 2.0 | 11.0 | 0.00 | 0.09 | 0.09 | 65 | 1009.4 |
| 20260508204001 | 76 | 213 | 3.0 | 11.0 | 0.00 | 0.09 | 0.09 | 66 | 1009.8 |
| 20260508203502 | 76 | 188 | 4.0 | 11.0 | 0.00 | 0.09 | 0.09 | 67 | 1010.3 |
| 20260508203006 | 76 | 182 | 2.0 | 9.0 | 0.00 | 0.09 | 0.09 | 67 | 1010.4 |
| 20260508202501 | 76 | 202 | 2.0 | 9.0 | 0.00 | 0.09 | 0.09 | 68 | 1010.5 |
| 20260508202001 | 75 | 254 | 2.0 | 9.0 | 0.00 | 0.09 | 0.09 | 67 | 1010.6 |
| 20260508201001 | 77 | 249 | 3.0 | 8.0 | 0.00 | 0.09 | 0.09 | 66 | 1010.6 |
| 20260508200501 | 77 | 194 | 1.0 | 10.0 | 0.00 | 0.09 | 0.09 | 65 | 1010.6 |
| 20260508200009 | 77 | 217 | 2.0 | 10.0 | 0.00 | 0.09 | 0.09 | 65 | 1010.7 |
| 20260508195505 | 77 | 212 | 4.0 | 10.0 | 0.00 | 0.09 | 0.09 | 65 | 1010.7 |
| 20260508195001 | 77 | 159 | 3.0 | 10.0 | 0.00 | 0.09 | 0.09 | 66 | 1010.8 |
| 20260508194506 | 76 | 205 | 2.0 | 8.0 | 0.00 | 0.09 | 0.09 | 68 | 1010.8 |
| 20260508194001 | 76 | 190 | 1.0 | 8.0 | 0.00 | 0.09 | 0.09 | 66 | 1010.9 |
| 20260508193503 | 76 | 206 | 2.0 | 10.0 | 0.00 | 0.09 | 0.09 | 66 | 1010.9 |
| 20260508193004 | 77 | 200 | 2.0 | 10.0 | 0.00 | 0.09 | 0.09 | 65 | 1010.9 |
| 20260508192501 | 77 | 218 | 1.0 | 7.0 | 0.00 | 0.09 | 0.09 | 66 | 1010.9 |
| 20260508191505 | 77 | 211 | 1.0 | 9.0 | 0.00 | 0.09 | 0.09 | 64 | 1010.9 |
| 20260508191001 | 77 | 207 | 2.0 | 10.0 | 0.00 | 0.09 | 0.09 | 63 | 1010.9 |
| 20260508190501 | 78 | 238 | 3.0 | 10.0 | 0.00 | 0.09 | 0.09 | 61 | 1011.0 |
| 20260508190014 | 79 | 164 | 1.0 | 4.0 | 0.00 | 0.09 | 0.09 | 60 | 1011.0 |
| 20260508185501 | 79 | 128 | 1.0 | 8.0 | 0.00 | 0.09 | 0.09 | 60 | 1011.1 |
| 20260508185001 | 80 | 210 | 2.0 | 8.0 | 0.00 | 0.09 | 0.09 | 61 | 1011.1 |
| 20260508184504 | 80 | 199 | 0.0 | 3.0 | 0.00 | 0.09 | 0.09 | 59 | 1011.2 |
| 20260508184003 | 79 | 208 | 0.0 | 1.0 | 0.00 | 0.09 | 0.09 | 61 | 1011.2 |
| 20260508183500 | 77 | 208 | 0.0 | 7.0 | 0.00 | 0.09 | 0.09 | 65 | 1011.3 |
| 20260508183004 | 76 | 208 | 1.0 | 9.0 | 0.00 | 0.09 | 0.09 | 66 | 1011.4 |
| 20260508182500 | 76 | 272 | 2.0 | 9.0 | 0.00 | 0.09 | 0.09 | 64 | 1011.5 |
| 20260508181000 | 75 | 191 | 3.0 | 12.0 | 0.00 | 0.09 | 0.09 | 66 | 1011.8 |
| 20260508180500 | 75 | 249 | 5.0 | 9.0 | 0.00 | 0.09 | 0.09 | 64 | 1011.9 |
| 20260508180006 | 76 | 211 | 3.0 | 9.0 | 0.00 | 0.09 | 0.09 | 64 | 1011.9 |
| 20260508175500 | 76 | 210 | 3.0 | 8.0 | 0.00 | 0.09 | 0.09 | 63 | 1012.1 |
| 20260508175000 | 76 | 242 | 3.0 | 9.0 | 0.00 | 0.09 | 0.09 | 63 | 1012.2 |
| 20260508174504 | 76 | 146 | 0.0 | 3.0 | 0.00 | 0.09 | 0.09 | 64 | 1012.3 |
| 20260508173501 | 76 | 121 | 0.0 | 6.0 | 0.00 | 0.09 | 0.09 | 63 | 1012.4 |
| 20260508172500 | 76 | 211 | 0.0 | 2.0 | 0.00 | 0.09 | 0.09 | 66 | 1012.3 |
| 20260508172000 | 75 | 203 | 0.0 | 9.0 | 0.00 | 0.09 | 0.09 | 63 | 1012.4 |
| 20260508171504 | 74 | 214 | 1.0 | 9.0 | 0.00 | 0.09 | 0.09 | 66 | 1012.5 |
| 20260508171000 | 74 | 220 | 2.0 | 6.0 | 0.00 | 0.09 | 0.09 | 64 | 1012.7 |
| 20260508170500 | 74 | 99 | 1.0 | 4.0 | 0.00 | 0.09 | 0.09 | 65 | 1012.7 |
| 20260508170006 | 73 | 85 | 0.0 | 5.0 | 0.00 | 0.09 | 0.09 | 65 | 1012.8 |
| 20260508165501 | 72 | 221 | 1.0 | 5.0 | 0.00 | 0.09 | 0.09 | 68 | 1013.2 |
| 20260508165001 | 72 | 172 | 0.0 | 9.0 | 0.00 | 0.09 | 0.09 | 68 | 1013.4 |
| 20260508164505 | 72 | 215 | 3.0 | 9.0 | 0.00 | 0.09 | 0.09 | 68 | 1013.4 |
| 20260508163500 | 70 | 165 | 2.0 | 7.0 | 0.00 | 0.09 | 0.09 | 70 | 1013.7 |
| 20260508163004 | 69 | 203 | 1.0 | 6.0 | 0.00 | 0.09 | 0.09 | 74 | 1013.7 |
| 20260508162500 | 69 | 229 | 0.0 | 2.0 | 0.00 | 0.09 | 0.09 | 76 | 1013.8 |
| 20260508162000 | 68 | 188 | 0.0 | 2.0 | 0.00 | 0.09 | 0.09 | 76 | 1013.9 |
| 20260508161505 | 68 | 188 | 0.0 | 2.0 | 0.00 | 0.09 | 0.09 | 76 | 1013.9 |
| 20260508161001 | 68 | 167 | 0.0 | 3.0 | 0.01 | 0.09 | 0.09 | 77 | 1013.9 |
| 20260508160500 | 67 | 163 | 0.0 | 3.0 | 0.06 | 0.09 | 0.09 | 77 | 1014.0 |
| 20260508160006 | 67 | 167 | 0.0 | 0.0 | 0.06 | 0.09 | 0.09 | 78 | 1014.0 |
| 20260508155500 | 68 | 196 | 0.0 | 0.0 | 0.07 | 0.09 | 0.09 | 81 | 1014.1 |
| 20260508155000 | 67 | 196 | 0.0 | 0.0 | 0.07 | 0.09 | 0.09 | 81 | 1014.2 |
| 20260508154504 | 66 | 196 | 0.0 | 0.0 | 0.07 | 0.09 | 0.09 | 82 | 1014.3 |
| 20260508154000 | 66 | 196 | 0.0 | 1.0 | 0.07 | 0.09 | 0.09 | 83 | 1014.3 |
| 20260508153501 | 66 | 196 | 0.0 | 1.0 | 0.07 | 0.09 | 0.09 | 82 | 1014.4 |
| 20260508153004 | 66 | 186 | 0.0 | 0.0 | 0.07 | 0.09 | 0.09 | 86 | 1014.3 |
| 20260508151504 | 65 | 162 | 0.0 | 0.0 | 0.07 | 0.09 | 0.09 | 82 | 1014.4 |
| 20260508151000 | 65 | 161 | 0.0 | 3.0 | 0.06 | 0.08 | 0.08 | 80 | 1014.4 |
| 20260508150500 | 66 | 161 | 0.0 | 6.0 | 0.01 | 0.03 | 0.03 | 76 | 1014.5 |
| 20260508150007 | 67 | 229 | 0.0 | 6.0 | 0.00 | 0.02 | 0.02 | 76 | 1015.0 |
| 20260508145500 | 67 | 175 | 0.0 | 0.0 | 0.00 | 0.02 | 0.02 | 76 | 1014.6 |
| 20260508145000 | 68 | 175 | 0.0 | 0.0 | 0.00 | 0.02 | 0.02 | 74 | 1014.5 |
| 20260508144504 | 68 | 175 | 0.0 | 0.0 | 0.00 | 0.02 | 0.02 | 74 | 1014.5 |
| 20260508144000 | 68 | 157 | 0.0 | 0.0 | 0.00 | 0.02 | 0.02 | 74 | 1014.7 |
| 20260508143500 | 68 | 157 | 0.0 | 0.0 | 0.00 | 0.02 | 0.02 | 74 | 1014.7 |
| 20260508142500 | 66 | 156 | 0.0 | 0.0 | 0.00 | 0.02 | 0.02 | 79 | 1014.8 |
| 20260508141504 | 65 | 157 | 0.0 | 0.0 | 0.00 | 0.02 | 0.02 | 80 | 1015.2 |
| 20260508141000 | 65 | 156 | 0.0 | 0.0 | 0.00 | 0.02 | 0.02 | 78 | 1015.2 |
| 20260508140500 | 66 | 119 | 0.0 | 0.0 | 0.00 | 0.02 | 0.02 | 78 | 1015.0 |
| 20260508140005 | 66 | 109 | 0.0 | 0.0 | 0.00 | 0.02 | 0.02 | 77 | 1014.8 |
| 20260508135459 | 66 | 101 | 0.0 | 2.0 | 0.00 | 0.02 | 0.02 | 77 | 1014.9 |
| 20260508135000 | 65 | 99 | 0.0 | 2.0 | 0.00 | 0.02 | 0.02 | 79 | 1014.7 |
| 20260508134502 | 64 | 215 | 0.0 | 0.0 | 0.00 | 0.02 | 0.02 | 83 | 1014.9 |
| 20260508133959 | 64 | 215 | 0.0 | 0.0 | 0.00 | 0.02 | 0.02 | 83 | 1014.8 |
| 20260508132459 | 64 | 215 | 0.0 | 0.0 | 0.00 | 0.02 | 0.02 | 84 | 1015.0 |
| 20260508131959 | 63 | 215 | 0.0 | 0.0 | 0.00 | 0.02 | 0.02 | 85 | 1014.7 |
| 20260508131504 | 63 | 215 | 0.0 | 4.0 | 0.00 | 0.02 | 0.02 | 85 | 1014.7 |
| 20260508131000 | 63 | 215 | 0.0 | 5.0 | 0.00 | 0.02 | 0.02 | 86 | 1014.9 |
| 20260508130459 | 63 | 185 | 0.0 | 2.0 | 0.00 | 0.02 | 0.02 | 87 | 1014.8 |
| 20260508130005 | 63 | 185 | 0.0 | 2.0 | 0.00 | 0.02 | 0.02 | 88 | 1014.8 |
| 20260508125501 | 62 | 184 | 0.0 | 2.0 | 0.00 | 0.02 | 0.02 | 88 | 1014.7 |
| 20260508124959 | 62 | 152 | 0.0 | 0.0 | 0.00 | 0.02 | 0.02 | 89 | 1014.7 |
| 20260508124503 | 62 | 152 | 0.0 | 1.0 | 0.00 | 0.02 | 0.02 | 89 | 1014.6 |
| 20260508123459 | 62 | 164 | 0.0 | 1.0 | 0.00 | 0.02 | 0.02 | 89 | 1014.9 |
| 20260508123003 | 61 | 158 | 0.0 | 0.0 | 0.00 | 0.02 | 0.02 | 90 | 1014.8 |
| 20260508122459 | 61 | 158 | 0.0 | 0.0 | 0.00 | 0.02 | 0.02 | 89 | 1014.8 |
| 20260508121503 | 61 | 157 | 0.0 | 0.0 | 0.00 | 0.02 | 0.02 | 90 | 1015.0 |
| 20260508121000 | 61 | 158 | 0.0 | 0.0 | 0.00 | 0.02 | 0.02 | 90 | 1015.7 |
| 20260508120459 | 61 | 143 | 0.0 | 0.0 | 0.00 | 0.02 | 0.02 | 90 | 1015.3 |
| 20260508120003 | 61 | 143 | 0.0 | 0.0 | 0.00 | 0.02 | 0.02 | 90 | 1015.0 |
| 20260508115459 | 61 | 143 | 0.0 | 0.0 | 0.00 | 0.02 | 0.02 | 90 | 1015.0 |
| 20260508114958 | 61 | 143 | 0.0 | 0.0 | 0.00 | 0.02 | 0.02 | 90 | 1015.0 |
| 20260508114501 | 61 | 142 | 0.0 | 0.0 | 0.00 | 0.02 | 0.02 | 89 | 1015.2 |
| 20260508113959 | 61 | 142 | 0.0 | 0.0 | 0.00 | 0.02 | 0.02 | 89 | 1015.2 |
| 20260508113458 | 61 | 143 | 0.0 | 0.0 | 0.00 | 0.02 | 0.02 | 89 | 1014.9 |
| 20260508113002 | 61 | 143 | 0.0 | 0.0 | 0.00 | 0.02 | 0.02 | 89 | 1014.7 |
| 20260508112458 | 61 | 142 | 0.0 | 0.0 | 0.00 | 0.02 | 0.02 | 89 | 1014.7 |
| 20260508111958 | 61 | 143 | 0.0 | 0.0 | 0.00 | 0.02 | 0.02 | 89 | 1014.8 |
| 20260508110958 | 61 | 143 | 0.0 | 1.0 | 0.01 | 0.02 | 0.02 | 89 | 1014.6 |
| 20260508110459 | 61 | 141 | 0.0 | 0.0 | 0.01 | 0.02 | 0.02 | 88 | 1014.5 |
| 20260508105458 | 61 | 133 | 0.0 | 3.0 | 0.01 | 0.02 | 0.02 | 88 | 1014.3 |
| 20260508104958 | 61 | 139 | 0.0 | 3.0 | 0.01 | 0.02 | 0.02 | 88 | 1014.3 |
| 20260508103002 | 61 | 211 | 1.0 | 3.0 | 0.01 | 0.02 | 0.02 | 86 | 1015.0 |
| 20260508102459 | 62 | 165 | 0.0 | 1.0 | 0.01 | 0.02 | 0.02 | 87 | 1014.7 |
| 20260508101502 | 62 | 166 | 0.0 | 0.0 | 0.00 | 0.01 | 0.01 | 85 | 1014.5 |
| 20260508100458 | 62 | 166 | 0.0 | 0.0 | 0.00 | 0.01 | 0.01 | 86 | 1014.6 |
| 20260508094959 | 62 | 165 | 0.0 | 0.0 | 0.00 | 0.01 | 0.01 | 85 | 1014.2 |
| 20260508094501 | 62 | 166 | 0.0 | 0.0 | 0.01 | 0.01 | 0.01 | 85 | 1014.0 |
| 20260508093458 | 62 | 165 | 0.0 | 0.0 | 0.01 | 0.01 | 0.01 | 85 | 1013.9 |
| 20260508093002 | 62 | 165 | 0.0 | 0.0 | 0.01 | 0.01 | 0.01 | 85 | 1013.9 |
| 20260508091958 | 62 | 166 | 0.0 | 0.0 | 0.01 | 0.01 | 0.01 | 85 | 1013.9 |
| 20260508091501 | 61 | 166 | 0.0 | 0.0 | 0.01 | 0.01 | 0.01 | 85 | 1014.0 |
| 20260508090958 | 61 | 166 | 0.0 | 0.0 | 0.01 | 0.01 | 0.01 | 86 | 1014.1 |
| 20260508090458 | 61 | 166 | 0.0 | 0.0 | 0.01 | 0.01 | 0.01 | 85 | 1014.2 |
| 20260508090004 | 61 | 166 | 0.0 | 0.0 | 0.01 | 0.01 | 0.01 | 86 | 1014.3 |
| 20260508085458 | 61 | 165 | 0.0 | 0.0 | 0.01 | 0.01 | 0.01 | 85 | 1013.9 |
| 20260508084958 | 61 | 165 | 0.0 | 1.0 | 0.01 | 0.01 | 0.01 | 85 | 1014.1 |
| 20260508084502 | 62 | 166 | 0.0 | 1.0 | 0.00 | 0.00 | 0.00 | 85 | 1014.3 |
| 20260508083958 | 62 | 166 | 0.0 | 1.0 | 0.00 | 0.00 | 0.00 | 85 | 1014.2 |
| 20260508083458 | 62 | 165 | 0.0 | 2.0 | 0.00 | 0.00 | 0.00 | 85 | 1014.6 |
| 20260508083002 | 62 | 166 | 0.0 | 6.0 | 0.00 | 0.00 | 0.00 | 84 | 1014.6 |
| 20260508081958 | 62 | 145 | 0.0 | 2.0 | 0.00 | 0.00 | 0.00 | 84 | 1014.1 |
| 20260508081502 | 61 | 198 | 0.0 | 0.0 | 0.00 | 0.00 | 0.00 | 85 | 1014.9 |
| 20260508080958 | 61 | 198 | 0.0 | 0.0 | 0.00 | 0.00 | 0.00 | 85 | 1015.6 |
| 20260508080458 | 62 | 197 | 0.0 | 0.0 | 0.00 | 0.00 | 0.00 | 85 | 1015.2 |
| 20260508080004 | 62 | 197 | 0.0 | 1.0 | 0.00 | 0.00 | 0.00 | 84 | 1014.8 |
| 20260508075458 | 62 | 196 | 0.0 | 1.0 | 0.00 | 0.00 | 0.00 | 83 | 1014.6 |
| 20260508074501 | 62 | 196 | 0.0 | 0.0 | 0.00 | 0.00 | 0.00 | 81 | 1015.2 |
| 20260508073958 | 63 | 195 | 0.0 | 0.0 | 0.00 | 0.00 | 0.00 | 79 | 1015.4 |
| 20260508073458 | 63 | 195 | 0.0 | 0.0 | 0.00 | 0.00 | 0.00 | 78 | 1015.3 |
| 20260508072458 | 62 | 196 | 0.0 | 0.0 | 0.00 | 0.00 | 0.00 | 78 | 1016.0 |
| 20260508071958 | 61 | 196 | 0.0 | 0.0 | 0.00 | 0.00 | 0.00 | 80 | 1016.3 |
| 20260508071501 | 61 | 196 | 0.0 | 0.0 | 0.00 | 0.00 | 0.00 | 79 | 1016.1 |
| 20260508070958 | 61 | 196 | 0.0 | 0.0 | 0.00 | 0.00 | 0.00 | 78 | 1015.5 |
| 20260508070458 | 62 | 195 | 0.0 | 0.0 | 0.00 | 0.00 | 0.00 | 78 | 1015.6 |
| 20260508065459 | 62 | 196 | 0.0 | 0.0 | 0.00 | 0.00 | 0.00 | 77 | 1015.3 |
| 20260508064503 | 62 | 196 | 0.0 | 0.0 | 0.00 | 0.00 | 0.00 | 77 | 1015.6 |
| 20260508063958 | 62 | 196 | 0.0 | 0.0 | 0.00 | 0.00 | 0.00 | 77 | 1015.7 |
| 20260508063001 | 62 | 196 | 0.0 | 0.0 | 0.00 | 0.00 | 0.00 | 76 | 1015.7 |
| 20260508062458 | 62 | 196 | 0.0 | 0.0 | 0.00 | 0.00 | 0.00 | 77 | 1016.0 |
| 20260508061958 | 61 | 196 | 0.0 | 0.0 | 0.00 | 0.00 | 0.00 | 77 | 1016.1 |
| 20260508061501 | 61 | 196 | 0.0 | 0.0 | 0.00 | 0.00 | 0.00 | 78 | 1016.3 |
| 20260508060958 | 61 | 195 | 0.0 | 0.0 | 0.00 | 0.00 | 0.00 | 78 | 1016.2 |
| 20260508060008 | 62 | 196 | 0.0 | 0.0 | 0.00 | 0.00 | 0.00 | 76 | 1016.2 |
| 20260508054506 | 62 | 196 | 0.0 | 0.0 | 0.00 | 0.00 | 0.00 | 74 | 1015.9 |
| 20260508054003 | 62 | 195 | 0.0 | 0.0 | 0.00 | 0.00 | 0.00 | 75 | 1016.0 |
| 20260508053502 | 62 | 196 | 0.0 | 0.0 | 0.00 | 0.00 | 0.00 | 74 | 1015.9 |
| 20260508053007 | 63 | 195 | 0.0 | 0.0 | 0.00 | 0.00 | 0.00 | 74 | 1015.8 |
| 20260508052503 | 63 | 196 | 0.0 | 0.0 | 0.00 | 0.00 | 0.00 | 73 | 1015.8 |
| 20260508052003 | 63 | 196 | 0.0 | 0.0 | 0.00 | 0.00 | 0.00 | 74 | 1015.9 |
| 20260508051507 | 63 | 196 | 0.0 | 0.0 | 0.00 | 0.00 | 0.00 | 72 | 1015.9 |
| 20260508051003 | 63 | 196 | 0.0 | 0.0 | 0.00 | 0.00 | 0.00 | 73 | 1016.0 |
| 20260508050504 | 63 | 196 | 0.0 | 0.0 | 0.00 | 0.00 | 0.00 | 74 | 1016.1 |
| 20260508050014 | 63 | 196 | 0.0 | 0.0 | 0.00 | 0.00 | 0.00 | 75 | 1016.0 |
| 20260508045503 | 63 | 196 | 0.0 | 0.0 | 0.00 | 0.00 | 0.00 | 75 | 1016.2 |
| 20260508045003 | 63 | 195 | 0.0 | 0.0 | 0.00 | 0.00 | 0.00 | 74 | 1016.1 |
| 20260508044507 | 63 | 195 | 0.0 | 0.0 | 0.00 | 0.00 | 0.00 | 73 | 1016.1 |
| 20260508044003 | 63 | 196 | 0.0 | 0.0 | 0.00 | 0.00 | 0.00 | 73 | 1016.1 |
| 20260508043006 | 63 | 196 | 0.0 | 0.0 | 0.00 | 0.00 | 0.00 | 71 | 1016.0 |
| 20260508042503 | 63 | 195 | 0.0 | 0.0 | 0.00 | 0.00 | 0.00 | 71 | 1016.0 |
| 20260508042003 | 63 | 196 | 0.0 | 0.0 | 0.00 | 0.00 | 0.00 | 70 | 1015.9 |
| 20260508041507 | 63 | 196 | 0.0 | 0.0 | 0.00 | 0.00 | 0.00 | 70 | 1016.0 |
| 20260508041003 | 63 | 196 | 0.0 | 0.0 | 0.00 | 0.00 | 0.00 | 69 | 1015.9 |
| 20260508040503 | 63 | 196 | 0.0 | 0.0 | 0.00 | 0.00 | 0.00 | 71 | 1016.0 |
| 20260508040010 | 63 | 196 | 0.0 | 0.0 | 0.00 | 0.00 | 0.00 | 70 | 1015.9 |
| 20260508035504 | 63 | 196 | 0.0 | 0.0 | 0.00 | 0.00 | 0.00 | 69 | 1015.9 |
| 20260508035003 | 63 | 195 | 0.0 | 0.0 | 0.00 | 0.00 | 0.00 | 69 | 1015.9 |
| 20260508034507 | 63 | 196 | 0.0 | 0.0 | 0.00 | 0.00 | 0.00 | 70 | 1015.8 |
| 20260508034004 | 63 | 196 | 0.0 | 0.0 | 0.00 | 0.00 | 0.00 | 69 | 1015.9 |
| 20260508033503 | 63 | 196 | 0.0 | 0.0 | 0.00 | 0.00 | 0.00 | 69 | 1015.9 |
| 20260508033007 | 63 | 195 | 0.0 | 0.0 | 0.00 | 0.00 | 0.00 | 69 | 1015.8 |
| 20260508032503 | 63 | 196 | 0.0 | 0.0 | 0.00 | 0.00 | 0.00 | 69 | 1015.8 |
| 20260508032002 | 63 | 196 | 0.0 | 0.0 | 0.00 | 0.00 | 0.00 | 69 | 1015.7 |
| 20260508030503 | 65 | 195 | 0.0 | 0.0 | 0.00 | 0.00 | 0.00 | 66 | 1015.7 |
| 20260508025503 | 65 | 195 | 0.0 | 0.0 | 0.00 | 0.00 | 0.00 | 64 | 1015.6 |
| 20260508025003 | 65 | 196 | 0.0 | 0.0 | 0.00 | 0.00 | 0.00 | 64 | 1015.5 |
| 20260508024506 | 66 | 196 | 0.0 | 0.0 | 0.00 | 0.00 | 0.00 | 63 | 1015.5 |
| 20260508024003 | 66 | 196 | 0.0 | 0.0 | 0.00 | 0.00 | 0.00 | 63 | 1015.3 |
| 20260508023503 | 66 | 195 | 0.0 | 0.0 | 0.00 | 0.00 | 0.00 | 63 | 1015.3 |
| 20260508023008 | 66 | 195 | 0.0 | 0.0 | 0.00 | 0.00 | 0.00 | 63 | 1015.3 |